| time (UTC) | temp F | wind direction | speed knots | gust knots | rain 1hr in | rain 24hr in | rain mn in | humidity % | barometer mb |
| 20260906093718 | 62 | 0.0 | 0.0 | 0.00 | 0.00 | 0.00 | 77 | 1005.5 | |
| 20260906085455 | 60 | 0.0 | 0.0 | 0.00 | 0.00 | 0.00 | 83 | 1005.4 | |
| 20260906083342 | 59 | 0.0 | 0.0 | 0.00 | 0.00 | 0.00 | 82 | 1005.3 | |
| 20260906073006 | 55 | 0.0 | 0.0 | 0.00 | 0.00 | 0.00 | 92 | 1004.6 | |
| 20260906070855 | 54 | 0.0 | 0.0 | 0.00 | 0.00 | 0.00 | 93 | 1004.4 | |
| 20260906064742 | 53 | 0.0 | 0.0 | 0.00 | 0.00 | 0.00 | 96 | 1004.3 | |
| 20260906062630 | 51 | 0.0 | 0.0 | 0.00 | 0.00 | 0.00 | 97 | 1004.2 | |
| 20260906060518 | 51 | 0.0 | 0.0 | 0.00 | 0.00 | 0.00 | 98 | 1003.9 | |
| 20260906054406 | 51 | 0.0 | 0.0 | 0.00 | 0.00 | 0.00 | 99 | 1003.7 | |
| 20260906052254 | 50 | 0.0 | 0.0 | 0.00 | 0.00 | 0.00 | 10 | 1003.3 | |
| 20260906050142 | 46 | 0.0 | 0.0 | 0.00 | 0.00 | 0.00 | 10 | 1003.2 | |
| 20260906044030 | 45 | 0.0 | 0.0 | 0.00 | 0.00 | 0.00 | 10 | 1003.0 | |
| 20260906012941 | 46 | 0.0 | 0.0 | 0.00 | 0.00 | 0.00 | 10 | 1001.2 | |
| 20260906010829 | 46 | 0.0 | 0.0 | 0.00 | 0.00 | 0.00 | 10 | 1000.9 | |
| 20260906004717 | 46 | 0.0 | 0.0 | 0.00 | 0.00 | 0.00 | 10 | 1000.8 | |
| 20260906000455 | 47 | 0.0 | 0.0 | 0.00 | 0.00 | 0.00 | 10 | 1000.4 | |
| 20260905234341 | 47 | 0.0 | 0.0 | 0.00 | 0.00 | 0.00 | 10 | 1000.2 | |
| 20260905224005 | 48 | 0.0 | 0.0 | 0.00 | 0.00 | 0.00 | 10 | 999.6 | |
| 20260905215741 | 49 | 0.0 | 0.0 | 0.00 | 0.00 | 0.00 | 10 | 999.0 | |
| 20260905213628 | 49 | 0.0 | 0.0 | 0.00 | 0.00 | 0.00 | 10 | 998.8 | |
| 20260905203253 | 52 | 0.0 | 0.0 | 0.00 | 0.00 | 0.00 | 10 | 997.8 | |
| 20260905195028 | 53 | 0.0 | 0.0 | 0.00 | 0.00 | 0.00 | 10 | 997.3 | |
| 20260905192916 | 53 | 0.0 | 0.0 | 0.00 | 0.00 | 0.00 | 10 | 997.0 | |
| 20260905190804 | 55 | 0.0 | 0.0 | 0.00 | 0.00 | 0.00 | 93 | 996.8 | |
| 20260905184652 | 57 | 0.0 | 0.0 | 0.00 | 0.00 | 0.00 | 92 | 996.6 | |
| 20260905180428 | 58 | 0.0 | 0.0 | 0.00 | 0.00 | 0.00 | 90 | 996.0 | |
| 20260905174316 | 58 | 0.0 | 0.0 | 0.00 | 0.00 | 0.00 | 88 | 995.5 | |
| 20260905170052 | 59 | 0.0 | 0.0 | 0.00 | 0.00 | 0.00 | 83 | 994.8 | |
| 20260905151452 | 63 | 0.0 | 0.0 | 0.00 | 0.00 | 0.00 | 54 | 993.5 | |
| 20260905145340 | 64 | 0.0 | 0.0 | 0.00 | 0.00 | 0.00 | 53 | 993.2 | |
| 20260905135004 | 63 | 0.0 | 0.0 | 0.00 | 0.00 | 0.00 | 54 | 992.7 | |
| 20260905132852 | 63 | 0.0 | 0.0 | 0.00 | 0.00 | 0.00 | 50 | 992.6 | |
| 20260905124628 | 63 | 0.0 | 0.0 | 0.00 | 0.00 | 0.00 | 55 | 992.4 | |
| 20260905122515 | 63 | 0.0 | 0.0 | 0.00 | 0.00 | 0.00 | 52 | 992.3 | |
| 20260905120403 | 61 | 0.0 | 0.0 | 0.00 | 0.00 | 0.00 | 63 | 992.2 | |
| 20260905112139 | 61 | 0.0 | 0.0 | 0.00 | 0.00 | 0.00 | 68 | 992.1 | |
| 20260905110028 | 60 | 0.0 | 0.0 | 0.00 | 0.00 | 0.00 | 70 | 991.9 | |
| 20260905103915 | 60 | 0.0 | 0.0 | 0.00 | 0.00 | 0.00 | 75 | 991.7 | |
| 20260905101803 | 59 | 0.0 | 0.0 | 0.00 | 0.00 | 0.00 | 81 | 991.6 |